Starlink 1569

operational
NORAD ID: 46039 Int'l Des: 2020-055 Owner: SPXS Country: US Constellation: starlink
LEOCIRCULARSTARLINK_TYPE

About Starlink 1569

Description loading...

Live Position

Loading 3D Globe...

Upcoming Passes

Altitude History

Altitude vs Time

uPlot chart will show altitude changes over time

Two-Line Element Set

1 46039U 20055N 26036.04201157 .00000673 00000-0 64106-4 0 9998
2 46039 53.0536 273.1784 0001618 88.6944 271.4230 15.06391872303965
Epoch: Feb 5, 2026 • Age: 17 hours

Current Status

Altitude 566.7 km
Velocity 7.58 km/s
Sub-Earth Point -52.78°S, 122.58°E
Launch Date Aug 7, 2020
Age 5.4 years
Type internet

Technical Details

Classification Payload
Mass 260.00 kg
Dry Mass 248.00 kg
Total Mass 260.00 kg
Length 0.20 m
Diameter 2.80 m
Span 9.00 m
Shape Box + pan
Manufacturer SPXS
Bus Type Starlink
Phase Status In Orbit
Owner/State SPXS/US

Large Constellations

Loading constellations...